DB0SVX Weather Reports


Display with metric or nautical units.
time (UTC)temp
F
wind
direction
speed
MPH
gust
MPH
rain 1hr
in
rain 24hr
in
rain mn
in
humidity
%
barometer
mb
20260508211022 51 135 0.0 0.0 0.00 0.00 0.00 47 1014.7
20260508205522 51 135 0.0 0.0 0.00 0.00 0.00 48 1014.7
20260508204022 52 135 0.0 0.0 0.00 0.00 0.00 48 1014.7
20260508202522 53 135 0.0 0.0 0.00 0.00 0.00 48 1014.7
20260508201022 54 135 0.0 0.0 0.00 0.00 0.00 48 1014.5
20260508195522 55 135 1.0 0.0 0.00 0.00 0.00 48 1014.4
20260508194022 55 112 3.0 0.0 0.00 0.00 0.00 48 1014.5
20260508192522 56 135 0.0 0.0 0.00 0.00 0.00 47 1014.0
20260508191022 57 112 7.0 0.0 0.00 0.00 0.00 47 1013.9
20260508185522 58 135 0.0 0.0 0.00 0.00 0.00 46 1013.7
20260508184022 59 135 0.0 0.0 0.00 0.00 0.00 46 1013.5
20260508182522 60 112 4.0 0.0 0.00 0.00 0.00 44 1013.2
20260508181022 62 157 0.0 0.0 0.00 0.00 0.00 43 1013.2
20260508175522 64 135 0.0 0.0 0.00 0.00 0.00 40 1012.9
20260508174022 68 112 4.0 0.0 0.00 0.00 0.00 36 1012.7
20260508172522 78 135 9.0 0.0 0.00 0.00 0.00 30 1012.7
20260508171022 81 135 4.0 0.0 0.00 0.00 0.00 29 1012.7
20260508165523 81 157 0.0 0.0 0.00 0.00 0.00 29 1012.7
20260508164022 82 90 5.0 0.0 0.00 0.00 0.00 28 1012.5
20260508162522 83 135 8.0 0.0 0.00 0.00 0.00 27 1012.5
20260508161022 84 112 3.0 0.0 0.00 0.00 0.00 28 1012.7
20260508155522 80 112 2.0 0.0 0.00 0.00 0.00 29 1012.7
20260508154022 85 135 3.0 0.0 0.00 0.00 0.00 27 1012.5
20260508152522 82 135 0.0 0.0 0.00 0.00 0.00 29 1012.7
20260508151022 72 135 0.0 0.0 0.00 0.00 0.00 35 1012.7
20260508145522 76 112 6.0 0.0 0.00 0.00 0.00 32 1013.0
20260508144022 76 112 3.0 0.0 0.00 0.00 0.00 31 1013.0
20260508142522 83 112 0.0 0.0 0.00 0.00 0.00 27 1013.0
20260508141022 82 157 2.0 0.0 0.00 0.00 0.00 28 1013.2
20260508135522 80 135 4.0 0.0 0.00 0.00 0.00 29 1013.4
20260508134022 81 225 7.0 0.0 0.00 0.00 0.00 29 1013.5
20260508132522 79 112 8.0 0.0 0.00 0.00 0.00 30 1013.7
20260508131022 77 0 3.0 0.0 0.00 0.00 0.00 31 1013.5
20260508125522 77 112 5.0 0.0 0.00 0.00 0.00 31 1013.7
20260508124022 78 202 2.0 0.0 0.00 0.00 0.00 31 1013.7
20260508122522 77 292 3.0 0.0 0.00 0.00 0.00 32 1013.7
20260508121022 78 112 3.0 0.0 0.00 0.00 0.00 31 1013.9
20260508115522 79 45 3.0 0.0 0.00 0.00 0.00 31 1014.0
20260508114022 78 157 2.0 0.0 0.00 0.00 0.00 32 1014.0
20260508112522 74 157 2.0 0.0 0.00 0.00 0.00 34 1014.0
20260508111022 77 202 0.0 0.0 0.00 0.00 0.00 33 1014.0
20260508105522 77 112 0.0 0.0 0.00 0.00 0.00 33 1014.2
20260508104022 75 90 7.0 0.0 0.00 0.00 0.00 33 1014.4
20260508102522 74 112 2.0 0.0 0.00 0.00 0.00 34 1014.5
20260508101022 73 90 11.0 0.0 0.00 0.00 0.00 34 1014.5
20260508095522 72 112 0.0 0.0 0.00 0.00 0.00 35 1014.5
20260508094022 72 112 6.0 0.0 0.00 0.00 0.00 34 1014.7
20260508092522 67 135 1.0 0.0 0.00 0.00 0.00 35 1014.7
20260508091022 63 157 3.0 0.0 0.00 0.00 0.00 37 1014.7
20260508085522 62 157 0.0 0.0 0.00 0.00 0.00 37 1014.7
20260508084022 62 157 3.0 0.0 0.00 0.00 0.00 35 1014.7
20260508082522 61 112 6.0 0.0 0.00 0.00 0.00 35 1014.7
20260508081022 60 112 10.0 0.0 0.00 0.00 0.00 34 1014.5
20260508075522 59 112 0.0 0.0 0.00 0.00 0.00 31 1014.5
20260508074022 57 90 6.0 0.0 0.00 0.00 0.00 29 1014.5
20260508072522 56 135 0.0 0.0 0.00 0.00 0.00 25 1014.7
20260508071022 55 135 0.0 0.0 0.00 0.00 0.00 19 1014.7
20260508065522 54 157 0.0 0.0 0.00 0.00 0.00 12 1014.5
20260508064022 52 112 0.0 0.0 0.00 0.00 0.00 1014.5
20260508062522 51 157 0.0 0.0 0.00 0.00 0.00 1014.5
20260508061022 49 202 0.0 0.0 0.00 0.00 0.00 1014.5
20260508055522 48 202 0.0 0.0 0.00 0.00 0.00 1014.2
20260508054022 47 202 0.0 0.0 0.00 0.00 0.00 1014.2
20260508052522 46 202 0.0 0.0 0.00 0.00 0.00 1014.2
20260508051022 46 202 0.0 0.0 0.00 0.00 0.00 1014.2
20260508045522 45 202 0.0 0.0 0.00 0.00 0.00 1014.0
20260508044022 45 157 0.0 0.0 0.00 0.00 0.00 1013.7
20260508042522 44 112 0.0 0.0 0.00 0.00 0.00 1013.7
20260508041022 43 112 0.0 0.0 0.00 0.00 0.00 1013.5
20260508035522 42 112 0.0 0.0 0.00 0.00 0.00 1013.7
20260508034022 41 135 0.0 0.0 0.00 0.00 0.00 1013.7
20260508032522 40 112 0.0 0.0 0.00 0.00 0.00 11 1013.7
20260508031022 39 135 0.0 0.0 0.00 0.00 0.00 13 1013.5
20260508025522 39 135 0.0 0.0 0.00 0.00 0.00 14 1013.5
20260508024022 39 135 0.0 0.0 0.00 0.00 0.00 16 1013.5
20260508022522 40 135 0.0 0.0 0.00 0.00 0.00 15 1013.4
20260508021022 40 135 0.0 0.0 0.00 0.00 0.00 15 1013.5
20260508015522 40 135 0.0 0.0 0.00 0.00 0.00 16 1013.5
20260508014022 40 112 0.0 0.0 0.00 0.00 0.00 20 1013.5
20260508012522 40 112 0.0 0.0 0.00 0.00 0.00 20 1013.5
20260508011022 40 112 0.0 0.0 0.00 0.00 0.00 20 1013.7
20260508005522 41 112 0.0 0.0 0.00 0.00 0.00 19 1013.5
20260508004022 41 112 0.0 0.0 0.00 0.00 0.00 20 1013.5
20260508002522 41 112 0.0 0.0 0.00 0.00 0.00 21 1013.7
20260508001022 41 157 0.0 0.0 0.00 0.00 0.00 22 1013.9
20260507235522 41 157 0.0 0.0 0.00 0.00 0.00 24 1014.0
20260507234022 41 157 0.0 0.0 0.00 0.00 0.00 26 1014.0
20260507232522 42 157 0.0 0.0 0.00 0.00 0.00 27 1014.2
20260507231022 42 157 0.0 0.0 0.00 0.00 0.00 27 1014.5
20260507225522 42 157 0.0 0.0 0.00 0.00 0.00 27 1014.5
20260507224022 43 157 0.0 0.0 0.00 0.00 0.00 28 1014.5
20260507222522 43 157 0.0 0.0 0.00 0.00 0.00 30 1014.5
20260507221022 44 157 0.0 0.0 0.00 0.00 0.00 32 1014.5
20260507215522 44 157 0.0 0.0 0.00 0.00 0.00 33 1014.4
20260507214022 45 157 0.0 0.0 0.00 0.00 0.00 32 1014.4
20260507212522 46 157 0.0 0.0 0.00 0.00 0.00 33 1014.2